Weather History for Sarasota, FL

Change the Weather History Date:

Sunday, December 16, 2012

  Actual Average Record
Temperature  
Mean Temperature 69 °F 63 °F  
Max Temperature 79 °F 73 °F 86 °F (2001)
Min Temperature 59 °F 54 °F 27 °F (1968)
Degree Days  
Heating Degree Days 0 4  
Month to date heating degree days 1 51  
Since 1 July heating degree days 42 84  
Cooling Degree Days 4 2  
Month to date cooling degree days 82 46  
Year to date cooling degree days 3806 3346  
Growing Degree Days 18 (Base 50)    
Moisture  
Dew Point 62 °F    
Average Humidity 84    
Maximum Humidity 100    
Minimum Humidity 60    
Precipitation  
Precipitation 0.00 in 0.08 in 1.18 in (1974)
Month to date precipitation 1.02 1.19  
Year to date precipitation 45.06 51.67  
Sea Level Pressure  
Sea Level Pressure 30.00 in    
Wind  
Wind Speed 4 mph (SE)    
Max Wind Speed 13 mph    
Max Gust Speed 15 mph    
Visibility 10 miles    
Events      
T = Trace of Precipitation, MM = Missing Value Source: NWS Daily Summary

Daily Weather History Graph

Daily Weather History Graph

Search for Another Location

Airport:

Trip Planner

Search our weather history database for the weather conditions in past years. The results will help you decide how hot, cold, wet, or windy it might be!

Date:

Astronomy

Dec. 16, 2012 Rise Set
Actual Time 7:13 AM EST 5:38 PM EST
Civil Twilight 6:47 AM EST 6:04 PM EST
Nautical Twilight 6:18 AM EST 6:33 PM EST
Astronomical Twilight 5:50 AM EST 7:02 PM EST
Moon 10:01 AM EST (12/16) 9:34 PM EST (12/16)
Length of Visible Light 11h 16m
Length of Day
10h 25m
Waxing Crescent, 16% of the Moon is Illuminated
Dec 16
Waxing Crescent
Dec 20
First Quarter
Dec 28
Full
Jan 4
Last Quarter
Jan 11
New

Hourly Weather History & Observations

Time (EST) Temp. Dew Point Humidity Pressure Visibility Wind Dir Wind Speed Gust Speed Precip Events Conditions
12:53 AM 62.1 °F 59.0 °F 90% 30.04 in 10.0 mi East 4.6 mph - N/A   Clear
1:53 AM 62.1 °F 59.0 °F 90% 30.04 in 10.0 mi East 4.6 mph - N/A   Clear
2:53 AM 60.1 °F 60.1 °F 100% 30.03 in 10.0 mi Calm Calm - N/A   Clear
3:53 AM 61.0 °F 60.1 °F 97% 30.04 in 10.0 mi Calm Calm - N/A   Clear
4:53 AM 60.1 °F 59.0 °F 96% 30.01 in 10.0 mi East 5.8 mph - N/A   Clear
5:53 AM 60.1 °F 59.0 °F 96% 30.02 in 10.0 mi East 4.6 mph - N/A   Clear
6:53 AM 59.0 °F 57.9 °F 96% 30.02 in 10.0 mi ESE 4.6 mph - N/A   Clear
7:53 AM 62.1 °F 61.0 °F 96% 30.04 in 10.0 mi East 3.5 mph - N/A   Clear
8:53 AM 68.0 °F 64.0 °F 87% 30.05 in 10.0 mi ESE 6.9 mph - N/A   Clear
9:53 AM 73.0 °F 64.9 °F 76% 30.05 in 10.0 mi SE 8.1 mph - N/A   Clear
10:53 AM 75.9 °F 64.0 °F 67% 30.04 in 10.0 mi SSE 9.2 mph - N/A   Clear
11:53 AM 77.0 °F 62.1 °F 60% 30.02 in 10.0 mi Variable 6.9 mph - N/A   Clear
12:53 PM 75.9 °F 64.9 °F 69% 29.99 in 10.0 mi SW 9.2 mph - N/A   Clear
1:53 PM 77.0 °F 64.0 °F 64% 29.95 in 10.0 mi SSW 10.4 mph - N/A   Clear
2:53 PM 77.0 °F 64.0 °F 64% 29.96 in 10.0 mi SSW 10.4 mph - N/A   Clear
3:53 PM 73.9 °F 64.9 °F 73% 29.96 in 10.0 mi SW 8.1 mph - N/A   Mostly Cloudy
4:53 PM 72.0 °F 64.0 °F 76% 29.96 in 10.0 mi SSW 6.9 mph - N/A   Clear
5:53 PM 71.1 °F 64.9 °F 81% 29.96 in 10.0 mi Calm Calm - N/A   Clear
6:53 PM 69.1 °F 64.0 °F 84% 29.95 in 10.0 mi Calm Calm - N/A   Clear
7:53 PM 66.9 °F 63.0 °F 87% 29.96 in 10.0 mi Calm Calm - N/A   Clear
8:53 PM 64.9 °F 63.0 °F 93% 29.97 in 10.0 mi Calm Calm - N/A   Clear
9:53 PM 64.0 °F 62.1 °F 93% 29.98 in 10.0 mi Calm Calm - N/A   Clear
10:53 PM 63.0 °F 61.0 °F 93% 29.98 in 10.0 mi Calm Calm - N/A   Clear
11:53 PM 64.0 °F 62.1 °F 93% 29.99 in 10.0 mi Calm Calm - N/A   Overcast